Weather History for Corinth, MS

Change the Weather History Date:

Thursday, May 29, 2014

  Actual Average Record
Temperature  
Mean Temperature 72 °F -  
Max Temperature 77 °F 84 °F 97 °F (1937)
Min Temperature 66 °F 61 °F 39 °F (1984)
Cooling Degree Days 6    
Growing Degree Days 22 (Base 50)    
Moisture  
Dew Point 65 °F    
Average Humidity 82    
Maximum Humidity 94    
Minimum Humidity 69    
Precipitation  
Precipitation 0.01 in - - ()
Sea Level Pressure  
Sea Level Pressure 29.98 in    
Wind  
Wind Speed 6 mph (SE)    
Max Wind Speed 13 mph    
Max Gust Speed 21 mph    
Visibility 10 miles    
Events Rain    
Averages and records for this station are not official NWS values.
T = Trace of Precipitation, MM = Missing Value Source: NWS Daily Summary

Daily Weather History Graph

Daily Weather History Graph

Search for Another Location

Airport:

Trip Planner

Search our weather history database for the weather conditions in past years. The results will help you decide how hot, cold, wet, or windy it might be!

Date:

Astronomy

May. 29, 2014 Rise Set
Actual Time 5:42 AM CDT 8:01 PM CDT
Civil Twilight 5:13 AM CDT 8:30 PM CDT
Nautical Twilight 4:38 AM CDT 9:05 PM CDT
Astronomical Twilight 3:59 AM CDT 9:44 PM CDT
Moon 6:34 AM CDT (5/29) 8:53 PM CDT (5/29)
Length of Visible Light 15h 16m
Length of Day
14h 18m
New Moon, 1% of the Moon is Illuminated
May 29
New Moon
Jun 5
First Quarter
Jun 12
Full
Jun 19
Last Quarter
Jun 27
New

Hourly Weather History & Observations

Time (CDT) Temp. Dew Point Humidity Pressure Visibility Wind Dir Wind Speed Gust Speed Precip Events Conditions
12:10 AM 68.0 °F 64.4 °F 88% 29.96 in 10.0 mi SE 4.6 mph - N/A   Overcast
12:30 AM 68.0 °F 64.4 °F 88% 29.96 in 10.0 mi ESE 4.6 mph - N/A   Overcast
12:50 AM 68.0 °F 64.4 °F 88% 29.95 in 10.0 mi ESE 4.6 mph - N/A   Mostly Cloudy
1:10 AM 68.0 °F 64.4 °F 88% 29.95 in 10.0 mi SE 5.8 mph - N/A   Partly Cloudy
1:30 AM 68.0 °F 64.4 °F 88% 29.94 in 10.0 mi SE 4.6 mph - N/A   Scattered Clouds
1:50 AM 68.0 °F 64.4 °F 88% 29.94 in 10.0 mi ESE 6.9 mph - N/A   Clear
2:10 AM 68.0 °F 64.4 °F 88% 29.94 in 10.0 mi SE 5.8 mph - N/A   Scattered Clouds
2:30 AM 68.0 °F 64.4 °F 88% 29.94 in 10.0 mi SE 5.8 mph - N/A Rain Light Rain
2:50 AM 68.0 °F 64.4 °F 88% 29.94 in 10.0 mi SE 5.8 mph - N/A   Mostly Cloudy
3:10 AM 68.0 °F 64.4 °F 88% 29.94 in 10.0 mi ESE 3.5 mph - N/A   Overcast
3:30 AM 68.0 °F 64.4 °F 88% 29.94 in 10.0 mi ESE 3.5 mph - N/A   Overcast
4:10 AM 66.2 °F 64.4 °F 94% 29.94 in 10.0 mi ESE 3.5 mph - N/A   Overcast
4:30 AM 66.2 °F 64.4 °F 94% 29.94 in 10.0 mi ESE 3.5 mph - N/A   Overcast
4:50 AM 66.2 °F 64.4 °F 94% 29.94 in 10.0 mi Calm Calm - N/A   Overcast
5:10 AM 66.2 °F 64.4 °F 94% 29.95 in 10.0 mi ESE 3.5 mph - N/A   Overcast
5:30 AM 66.2 °F 64.4 °F 94% 29.95 in 10.0 mi ESE 4.6 mph - N/A   Overcast
5:50 AM 66.2 °F 64.4 °F 94% 29.95 in 10.0 mi ESE 3.5 mph - N/A   Overcast
6:10 AM 68.0 °F 64.4 °F 88% 29.96 in 10.0 mi ESE 4.6 mph - N/A   Overcast
6:30 AM 68.0 °F 64.4 °F 88% 29.97 in 10.0 mi ESE 4.6 mph - N/A   Mostly Cloudy
6:50 AM 68.0 °F 64.4 °F 88% 29.97 in 10.0 mi SE 3.5 mph - N/A   Partly Cloudy
7:10 AM 68.0 °F 64.4 °F 88% 29.98 in 8.0 mi SE 5.8 mph - N/A Rain Light Rain
7:30 AM 68.0 °F 64.4 °F 88% 29.98 in 7.0 mi SE 5.8 mph - 0.01 in Rain Light Rain
7:50 AM 68.0 °F 64.4 °F 88% 29.99 in 9.0 mi SE 4.6 mph - 0.01 in Rain Light Rain
8:10 AM 68.0 °F 64.4 °F 88% 29.99 in 10.0 mi ESE 3.5 mph - N/A Rain Light Rain
8:30 AM 68.0 °F 64.4 °F 88% 30.00 in 10.0 mi SE 3.5 mph - N/A   Overcast
8:50 AM 68.0 °F 64.4 °F 88% 30.01 in 10.0 mi North - - N/A   Overcast
9:10 AM 68.0 °F 64.4 °F 88% 30.01 in 10.0 mi SE 5.8 mph - N/A   Overcast
9:30 AM 68.0 °F 66.2 °F 94% 30.01 in 10.0 mi ESE 5.8 mph - N/A   Overcast
9:50 AM 69.8 °F 66.2 °F 88% 30.02 in 10.0 mi ESE 6.9 mph - N/A   Overcast
10:10 AM 71.6 °F 66.2 °F 83% 30.02 in 10.0 mi ESE 6.9 mph - N/A   Mostly Cloudy
10:30 AM 71.6 °F 66.2 °F 83% 30.02 in 10.0 mi ESE 6.9 mph - N/A   Mostly Cloudy
10:50 AM 71.6 °F 66.2 °F 83% 30.02 in 10.0 mi ESE 8.1 mph - N/A   Overcast
11:10 AM 73.4 °F 66.2 °F 78% 30.02 in 10.0 mi SE 10.4 mph - N/A   Mostly Cloudy
11:30 AM 73.4 °F 64.4 °F 73% 30.02 in 10.0 mi SE 9.2 mph - N/A   Mostly Cloudy
11:50 AM 73.4 °F 64.4 °F 73% 30.02 in 10.0 mi ESE 9.2 mph - N/A   Mostly Cloudy
12:10 PM 75.2 °F 66.2 °F 73% 30.01 in 10.0 mi SE 8.1 mph - N/A   Scattered Clouds
12:30 PM 75.2 °F 64.4 °F 69% 30.01 in 10.0 mi South 10.4 mph - N/A   Scattered Clouds
1:10 PM 75.2 °F 64.4 °F 69% 30.01 in 10.0 mi South 11.5 mph 20.7 mph N/A   Partly Cloudy
1:30 PM 73.4 °F 64.4 °F 73% 30.01 in 10.0 mi SSE 9.2 mph 17.3 mph N/A   Clear
1:50 PM 73.4 °F 64.4 °F 73% 30.01 in 10.0 mi SSE 12.7 mph 17.3 mph N/A   Partly Cloudy
2:10 PM 75.2 °F 64.4 °F 69% 30.00 in 10.0 mi SSE 11.5 mph - N/A   Partly Cloudy
2:30 PM 75.2 °F 64.4 °F 69% 30.00 in 10.0 mi SSE 11.5 mph 17.3 mph N/A   Partly Cloudy
2:50 PM 75.2 °F 64.4 °F 69% 29.99 in 10.0 mi South 10.4 mph - N/A   Partly Cloudy
3:10 PM 75.2 °F 64.4 °F 69% 29.99 in 10.0 mi South 9.2 mph - N/A   Clear
3:30 PM 75.2 °F 66.2 °F 73% 29.98 in 10.0 mi SSE 10.4 mph - N/A   Partly Cloudy
3:50 PM 75.2 °F 66.2 °F 73% 29.97 in 10.0 mi SE 6.9 mph - N/A   Partly Cloudy
4:10 PM 75.2 °F 66.2 °F 73% 29.97 in 10.0 mi ESE 8.1 mph - N/A   Clear
4:30 PM 75.2 °F 66.2 °F 73% 29.96 in 10.0 mi East 6.9 mph - N/A   Clear
4:50 PM 75.2 °F 66.2 °F 73% 29.95 in 10.0 mi East 6.9 mph - N/A   Clear
5:10 PM 75.2 °F 66.2 °F 73% 29.95 in 10.0 mi ESE 8.1 mph - N/A   Clear
5:30 PM 77.0 °F 66.2 °F 69% 29.95 in 10.0 mi ESE 8.1 mph - N/A   Clear
5:50 PM 75.2 °F 66.2 °F 73% 29.95 in 10.0 mi ESE 6.9 mph - N/A   Clear
6:10 PM 75.2 °F 66.2 °F 73% 29.95 in 10.0 mi ESE 6.9 mph - N/A   Clear
6:30 PM 75.2 °F 66.2 °F 73% 29.95 in 10.0 mi ESE 6.9 mph - N/A   Clear
6:50 PM 75.2 °F 66.2 °F 73% 29.96 in 10.0 mi SE 6.9 mph - N/A   Clear
7:10 PM 75.2 °F 66.2 °F 73% 29.97 in 10.0 mi ESE 8.1 mph - N/A   Clear
7:30 PM 73.4 °F 66.2 °F 78% 29.97 in 10.0 mi ESE 5.8 mph - N/A   Clear
7:50 PM 73.4 °F 66.2 °F 78% 29.97 in 10.0 mi ESE 4.6 mph - N/A   Scattered Clouds
8:10 PM 73.4 °F 66.2 °F 78% 29.98 in 10.0 mi ESE 4.6 mph - N/A   Overcast
8:30 PM 73.4 °F 66.2 °F 78% 29.98 in 10.0 mi ESE 3.5 mph - N/A   Scattered Clouds
8:50 PM 71.6 °F 66.2 °F 83% 29.98 in 10.0 mi SE 4.6 mph - N/A   Mostly Cloudy
9:10 PM 71.6 °F 66.2 °F 83% 29.99 in 10.0 mi East 4.6 mph - N/A   Mostly Cloudy
9:30 PM 71.6 °F 66.2 °F 83% 30.00 in 10.0 mi SE 4.6 mph - N/A   Mostly Cloudy
9:50 PM 71.6 °F 66.2 °F 83% 30.00 in 10.0 mi SE 4.6 mph - N/A   Overcast
10:10 PM 71.6 °F 66.2 °F 83% 30.00 in 10.0 mi East 4.6 mph - N/A   Mostly Cloudy
10:30 PM 71.6 °F 66.2 °F 83% 30.00 in 10.0 mi ESE 4.6 mph - N/A   Scattered Clouds
10:50 PM 71.6 °F 66.2 °F 83% 30.00 in 10.0 mi ESE 3.5 mph - N/A   Partly Cloudy
11:10 PM 71.6 °F 66.2 °F 83% 30.00 in 10.0 mi ESE 3.5 mph - N/A   Clear
11:30 PM 71.6 °F 66.2 °F 83% 30.00 in 10.0 mi ESE 3.5 mph - N/A   Partly Cloudy
11:50 PM 71.6 °F 66.2 °F 83% 30.00 in 10.0 mi SE 4.6 mph - N/A   Scattered Clouds